EHI
2 2 1 0 0 0 0 0 0 0 0 0 0 0 0 0 0 0 0 0 0 0 0 0 0 0 0 0 0 0 0 0 0 0 0 0 0 0 0 0 0 0 0
1 1 0 0 0 0 0 0 0 0 0 0 0 0 0 0 0 0 0 0 0 0 0 0 0 0 0 0 0 0 0 0 0 0 0 0 0 0 0 0 0 0 0
0 0 0 0 0 0 0 0 0 0 0 0 0 0 0 0 0 0 0 0 0 0 0 0 0 0 0 0 0 0 0 0 0 0 0 0 0 0 0 0 0 0 0
1 0 0 0 0 1 0 0 0 0 0 0 0 0 0 0 0 0 0 0 0 0 0 0 0 0 0 0 0 0 0 0 0 0 0 0 0 0 0 0 0 0 0
2 1 1 0 0 0 0 0 0 0 0 0 0 0 0 0 0 0 0 0 0 0 0 0 0 0 0 0 0 0 0 0 0 0 0 0 0 0 0 0 0 0 0
3 3 2 1 0 0 0 0 0 0 0 0 0 0 0 0 0 0 0 0 0 0 0 0 0 0 0 0 0 0 0 0 0 0 0 0 0 0 0 0 0 0 0
4 4 3 2 1 0 0 0 0 0 0 0 0 0 0 0 0 0 0 0 0 0 0 0 0 0 0 0 0 0 0 0 0 0 0 0 0 0 0 0 0 0 0
6 5 4 2 1 0 0 0 0 0 0 0 0 0 0 0 0 0 0 0 0 0 0 0 0 0 0 0 0 0 0 0 1 0 0 0 0 0 0 0 0 0 0
6 6 4 2 0 0 0 0 0 0 0 0 0 0 0 0 0 0 0 0 0 0 0 0 0 0 0 0 0 0 0 0 0 0 0 0 0 0 0 0 0 0 0
6 5 3 1 0 0 0 0 0 0 0 0 0 0 0 0 0 0 0 0 0 0 0 0 0 0 0 0 0 0 0 0 0 0 0 0 0 0 0 0 0 0 0
4 3 2 0 0 0 0 0 0 0 0 0 0 0 0 0 0 0 0 0 0 0 0 0 0 0 0 0 0 0 0 0 0 0 0 0 0 0 0 0 0 0 0
3 3 2 1 0 0 0 0 0 0 0 0 0 0 0 0 0 0 0 0 0 0 0 0 0 0 0 0 0 0 0 0 0 0 0 0 0 0 0 0 0 0 0
3 3 3 2 1 0 0 0 0 0 0 0 0 0 0 0 0 0 0 0 0 0 0 0 0 0 0 0 0 0 0 0 0 0 0 0 0 0 0 0 0 0 0
3 3 3 2 1 0 0 0 0 0 0 0 0 0 0 0 0 0 0 0 0 0 0 0 0 0 0 0 0 0 0 0 0 0 0 0 0 0 0 0 0 0 0
3 2 1 1 0 0 0 0 0 0 0 0 0 0 0 0 0 0 0 0 0 0 0 0 0 0 0 0 0 0 0 0 0 0 0 0 0 0 0 0 0 0 0
2 1 0 0 0 0 0 0 0 0 0 0 0 0 0 0 0 0 0 0 0 0 0 0 0 0 0 0 0 0 0 0 0 0 0 0 0 0 0 0 0 0 0
1 0 0 0 0 0 0 0 0 0 0 0 0 0 0 0 0 0 0 0 0 0 0 0 0 0 0 0 0 0 0 0 0 0 0 0 0 0 0 0 0 0 0
0 0 0 0 0 0 0 0 0 0 0 0 0 0 0 0 0 0 0 0 0 0 0 0 0 0 0 0 0 0 0 0 0 0 0 0 0 0 0 0 0 0 0
0 0 0 0 0 0 0 0 0 0 0 0 0 0 0 0 0 0 0 0 0 0 0 0 0 0 0 0 0 0 0 0 0 0 0 0 0 0 0 0 0 0 0
0 0 0 0 0 0 0 0 0 0 0 0 0 0 0 0 0 0 0 0 0 0 0 0 0 0 0 0 0 0 0 0 0 0 0 0 0 0 0 0 0 0 0
0 0 0 0 0 0 0 0 0 0 0 0 0 0 0 0 0 0 0 0 0 0 0 0 0 0 0 0 0 0 0 0 0 0 0 0 0 0 0 0 0 0 0
0 0 0 0 0 0 0 0 0 0 0 0 0 0 0 0 0 0 0 0 0 0 0 0 0 0 0 0 0 0 0 0 0 0 0 0 0 0 0 0 0 0 0
0 0 0 0 0 0 0 0 0 0 0 0 0 0 0 0 0 0 0 0 0 0 0 0 0 0 0 0 0 0 0 0 0 0 0 0 0 0 0 0 0 0 0
0 0 0 0 0 0 0 0 0 0 0 0 0 0 0 0 0 0 0 0 0 0 0 0 0 0 0 0 0 0 0 0 0 0 0 0 0 0 0 0 0 0 0
0 0 0 0 0 0 0 0 0 0 0 0 0 0 0 0 0 0 0 0 0 0 0 0 0 0 0 0 0 0 0 0 0 0 0 0 0 0 0 0 0 0 0
0 0 0 0 0 0 0 0 0 0 0 0 0 0 0 0 0 0 0 0 0 0 0 0 0 0 0 0 0 0 0 0 0 0 0 0 0 0 0 0 0 0 0
Wind_Speed
1 1 1 1 1 1 1 1 1 1 2 1 2 2 2 3 4 4 3 5 6 6 7 8 8 8 9 9 9 9 9 9 9 9 9 9 9 8 8 8 8 8 9
1 1 1 1 1 1 1 1 1 2 1 1 2 2 3 3 4 4 3 4 6 6 6 7 7 8 8 8 8 8 8 8 8 8 7 7 7 7 7 7 7 7 8
1 1 1 1 1 1 1 1 2 2 2 2 2 2 2 3 4 4 4 3 3 5 6 6 7 7 7 7 7 7 7 8 7 7 7 6 6 7 7 7 7 8 8
1 0 1 1 1 1 1 1 1 2 2 2 2 2 2 2 3 3 3 3 3 3 3 5 5 6 6 6 6 6 7 7 7 6 6 6 7 7 7 8 8 8 8
0 0 1 1 1 1 1 1 1 2 2 2 2 2 1 2 2 3 3 3 3 3 2 4 5 5 5 5 5 5 6 6 6 6 6 6 6 7 7 7 7 7 7
0 0 1 1 1 1 1 1 1 2 2 2 3 2 1 1 1 2 2 2 2 3 3 3 2 3 4 4 4 4 5 5 6 6 6 6 6 6 6 6 6 6 6
1 0 1 1 1 1 1 1 2 3 2 3 3 2 1 1 1 1 2 2 2 2 3 3 2 2 2 3 3 3 3 4 5 6 5 5 5 5 5 5 5 6 6
1 1 1 1 1 2 2 1 2 2 2 3 3 3 2 0 1 1 1 2 2 2 2 2 2 2 2 2 2 3 3 4 4 5 5 5 5 5 5 4 4 5 5
2 2 2 2 2 2 3 3 3 2 3 3 2 2 3 3 1 0 1 1 2 2 2 2 2 2 2 2 2 3 4 3 4 4 5 5 4 4 4 4 4 5 5
2 2 2 2 2 2 3 4 3 2 3 3 2 1 1 2 3 2 1 1 2 2 1 1 2 2 2 2 3 4 5 4 4 4 4 4 4 4 3 3 3 4 4
2 2 2 2 2 2 3 4 3 3 3 3 3 2 1 1 1 3 3 2 1 1 1 2 2 1 1 2 2 3 4 5 4 4 4 4 4 3 3 3 3 3 3
2 3 2 2 2 3 3 4 4 4 4 4 3 2 2 3 3 2 3 3 2 2 2 1 2 2 2 2 2 4 4 5 5 5 5 4 4 4 3 3 2 2 2
1 3 2 2 3 3 3 3 4 4 5 5 4 3 3 3 2 2 3 3 2 1 1 1 2 2 2 2 2 4 3 4 5 5 5 4 4 3 3 3 2 2 2
2 3 3 3 3 3 3 3 3 4 4 5 5 5 3 3 3 2 3 4 3 1 2 3 1 2 2 2 3 5 3 4 4 4 5 4 3 3 3 3 2 2 1
2 3 4 4 4 4 4 4 3 4 4 5 5 5 4 3 3 2 3 4 5 4 3 3 2 3 3 3 4 3 3 5 4 4 4 4 4 3 3 3 2 2 2
2 3 4 4 4 4 3 3 3 3 4 4 4 5 4 3 3 3 3 3 3 3 3 3 3 3 3 3 4 4 4 6 6 5 4 4 4 4 4 4 3 3 3
2 3 3 3 3 3 3 3 3 3 4 4 4 5 5 4 3 3 3 3 3 3 3 2 1 2 3 4 3 3 4 4 4 6 5 5 5 4 5 4 4 4 3
3 3 4 3 3 3 3 3 4 4 4 5 5 5 5 4 5 4 4 4 4 4 4 4 2 2 3 4 4 4 4 3 3 5 6 6 6 5 5 5 5 4 4
3 4 4 3 4 3 3 3 3 4 4 5 5 5 5 5 6 5 5 5 4 3 4 4 4 2 2 3 3 3 3 3 3 5 6 7 7 6 6 5 5 5 4
3 4 4 4 4 4 4 3 3 4 4 5 5 5 6 6 6 6 5 5 4 4 4 4 4 3 3 3 3 3 3 3 3 3 4 5 6 7 7 7 6 5 5
4 4 4 3 3 4 4 4 4 4 4 5 5 5 5 5 6 5 5 5 5 4 4 4 4 4 3 4 5 4 4 3 3 3 3 3 4 4 5 6 7 7 6
4 4 3 4 4 4 5 6 5 4 4 5 5 4 4 5 6 6 6 6 6 6 6 5 4 5 6 5 4 4 3 3 3 3 3 3 3 4 4 4 6 8 7
4 3 4 4 3 4 6 7 7 5 4 4 5 5 4 4 4 4 4 5 5 7 8 7 7 6 6 6 6 5 5 4 4 3 3 3 3 4 3 4 8 8 8
3 3 3 3 3 4 6 6 6 4 4 4 4 5 5 4 4 4 3 3 3 4 6 5 5 5 5 5 6 6 6 3 0 1 3 3 2 3 2 2 6 8 8
3 3 3 3 3 4 6 6 5 3 3 3 4 4 4 5 6 5 4 4 3 3 3 3 4 3 4 5 5 4 4 3 3 2 2 2 1 1 1 2 3 7 7
4 3 3 3 3 3 5 6 5 2 3 3 3 4 5 6 6 6 5 5 5 4 2 2 2 2 2 3 4 5 5 5 3 3 3 3 2 1 1 1 1 2 3
Wind_Direction
118 137 141 147 168 149 159 191 153 122 118 116 115 111 103 105 108 103 91 84 91 98 108 109 108 111 111 109 107 104 100 98 97 94 93 88 83 82 82 81 81 78 75
130 161 149 156 165 156 175 182 136 109 105 100 96 94 98 107 114 114 113 95 91 97 105 110 109 106 108 109 108 108 107 102 99 97 97 95 89 84 85 84 83 84 80
141 175 161 168 169 169 168 144 122 105 107 91 80 78 90 109 117 118 121 117 107 95 100 109 111 110 105 104 109 110 111 109 103 100 97 96 92 87 87 86 85 84 82
136 176 167 173 174 163 146 129 140 117 109 100 85 68 63 88 103 115 121 123 123 116 106 107 109 114 113 109 107 107 111 117 113 106 102 97 92 89 90 86 85 83 81
34 342 168 178 173 158 153 155 139 134 134 116 102 84 70 79 104 115 124 123 124 125 125 119 115 115 114 114 112 110 111 118 120 114 111 106 100 94 89 88 86 86 85
244 318 181 179 158 172 182 154 144 132 138 132 109 87 67 77 91 114 128 119 125 132 135 136 130 127 126 118 113 115 118 122 121 120 119 114 108 102 95 88 87 93 90
237 233 180 188 181 186 195 179 151 146 143 129 107 92 44 55 81 109 111 117 125 126 130 138 147 141 147 139 127 122 121 130 136 132 126 124 120 113 104 95 89 88 91
219 225 168 198 205 188 184 188 153 154 168 161 147 139 140 81 358 55 119 137 156 144 140 136 143 149 154 154 138 130 128 131 134 139 135 127 121 114 108 102 93 91 89
212 214 191 197 211 202 195 201 184 187 182 195 186 162 160 180 172 226 169 158 156 152 163 159 152 152 142 148 152 141 134 141 148 144 136 129 125 123 115 104 97 88 84
215 214 195 203 207 209 202 203 200 209 188 194 213 234 213 158 151 163 210 193 171 163 170 168 159 152 149 139 144 141 149 153 157 161 155 144 136 135 128 120 107 96 91
212 224 211 208 210 213 211 206 208 214 207 202 200 210 232 189 155 157 184 191 199 203 187 176 154 149 145 148 149 145 156 162 171 175 171 161 149 148 140 128 122 110 101
205 218 225 220 221 220 214 211 208 220 221 211 210 209 195 191 194 175 179 181 186 212 205 179 167 164 149 146 152 144 158 173 177 181 178 166 155 155 155 147 134 131 128
224 225 230 226 233 233 225 219 207 220 220 209 207 214 222 219 205 188 170 175 177 204 195 201 192 167 166 160 173 163 170 176 180 183 183 179 167 159 158 165 166 157 162
229 236 232 227 236 238 231 226 216 225 223 216 217 212 216 222 207 198 184 168 168 212 209 212 200 181 175 173 180 172 177 171 169 177 188 183 168 154 155 167 179 179 163
253 250 240 230 229 230 226 223 221 225 225 218 219 218 217 216 209 204 195 180 173 190 218 206 196 194 184 171 181 177 176 176 171 173 177 176 171 160 160 166 178 180 175
245 255 253 241 234 232 226 223 227 226 227 226 224 219 220 218 210 203 199 203 198 185 207 203 201 190 180 177 179 179 181 171 179 178 184 179 177 176 177 179 186 184 182
242 254 256 253 247 247 235 223 233 230 230 229 230 226 224 216 212 212 204 203 205 186 196 217 192 177 175 181 187 187 182 183 187 188 191 191 186 190 193 192 192 193 194
244 251 250 245 251 257 253 235 232 233 234 229 227 227 229 219 217 215 210 208 207 195 182 192 194 190 194 191 188 189 190 186 189 191 194 196 194 194 197 200 197 197 195
248 255 251 241 242 246 248 244 237 239 240 239 231 227 228 222 221 217 215 208 203 198 186 183 192 199 192 189 187 193 193 189 191 192 198 200 200 200 201 198 196 198 198
255 258 252 248 249 250 247 244 242 251 250 249 243 236 229 223 225 217 215 209 196 189 182 182 186 192 192 192 186 190 205 202 200 194 201 202 206 208 205 203 202 204 207
273 267 259 255 255 253 251 246 236 245 251 249 247 244 238 231 235 228 222 203 193 193 187 189 194 193 191 191 201 193 205 204 212 193 191 211 208 209 206 208 209 210 211
278 273 264 257 254 261 266 264 256 241 248 252 249 246 242 233 233 234 233 216 199 196 193 196 205 204 205 204 198 190 189 194 222 195 182 226 203 209 208 201 204 206 210
280 273 276 273 265 272 272 267 264 255 249 250 248 240 238 237 232 223 219 215 219 214 204 202 205 210 206 204 193 195 203 209 219 186 166 227 213 219 213 211 201 201 206
288 283 282 282 276 276 276 270 267 259 254 253 251 241 230 222 223 217 211 216 234 234 217 210 210 214 212 206 203 200 197 200 242 179 166 218 227 228 223 209 208 206 209
298 296 292 283 279 280 278 271 266 251 248 253 252 246 234 225 218 211 205 210 229 256 237 205 204 207 202 200 193 170 171 183 222 225 196 186 204 235 252 240 222 208 208
292 292 292 284 276 275 282 278 271 241 249 255 255 248 236 229 216 209 204 203 215 226 214 204 202 198 193 191 192 196 189 193 201 213 193 175 183 160 251 256 208 191 200